Amendola, Italy

3:17 PM CET on December 17, 2017 (GMT +0100)
Amendola Mil

Weather History for LIBA - October, 2013

Change the Weather History Date:

Thursday, October 31, 2013

  Actual Average Record
Temperature  
Mean Temperature 64 °F -  
Max Temperature 70 °F 62 °F 82 °F (2004)
Min Temperature 58 °F 45 °F 44 °F (2006)
Degree Days  
Heating Degree Days 1    
Growing Degree Days 14 (Base 50)    
Moisture  
Dew Point 59 °F    
Average Humidity 79    
Maximum Humidity 88    
Minimum Humidity 62    
Precipitation  
Precipitation 0.00 in 0.07 in - ()
Sea Level Pressure  
Sea Level Pressure 30.11 in    
Wind  
Wind Speed 3 mph ()    
Max Wind Speed 9 mph    
Max Gust Speed -    
Visibility 3.8 miles    
Events      
Averages and records for this station are not official NWS values.
T = Trace of Precipitation, MM = Missing Value Source: Averaged Metar Reports

Daily Weather History Graph

Daily Weather History Graph

Search for Another Location

Airport or City:

Trip Planner

Search our weather history database for the weather conditions in past years. The results will help you decide how hot, cold, wet, or windy it might be!

Date:

Astronomy

Oct. 31, 2013 Rise Set
Actual Time 6:27 AM CET 4:53 PM CET
Civil Twilight 5:58 AM CET 5:21 PM CET
Nautical Twilight 5:26 AM CET 5:54 PM CET
Astronomical Twilight 4:53 AM CET 6:26 PM CET
Moon 2:56 AM CET (10/31) 3:03 PM CET (10/31)
Length of Visible Light 11h 23m
Length of Day
10h 25m
Waning Crescent, 11% of the Moon is Illuminated
Oct 31
Waning Crescent
Nov 3
New
Nov 10
First Quarter
Nov 17
Full
Nov 25
Last Quarter

Hourly Weather History & Observations

Time (CET) Temp. Dew Point Humidity Pressure Visibility Wind Dir Wind Speed Gust Speed Precip Events Conditions
5:55 AM 59.0 °F 55.4 °F 88% 30.06 in 3.7 mi WNW 4.6 mph - N/A   Partly Cloudy
6:55 AM 59.0 °F 53.6 °F 82% 30.09 in 3.7 mi WNW 4.6 mph - N/A   Mostly Cloudy
7:00 AM 59 °F 54 °F 77% 30.10 in 1 mi WNW 4.6 mph - -   Mist
7:55 AM 59.0 °F 53.6 °F 82% 30.09 in 3.1 mi WNW 2.3 mph - N/A   Scattered Clouds
8:55 AM 60.8 °F 55.4 °F 82% 30.09 in 3.7 mi WNW 2.3 mph - N/A   Scattered Clouds
9:55 AM 64.4 °F 57.2 °F 77% 30.09 in 4.3 mi Calm Calm - N/A   Scattered Clouds
10:00 AM 65 °F 57 °F 67% 30.10 in 2 mi Calm Calm - -   Mist
10:55 AM 68.0 °F 57.2 °F 68% 30.12 in 4.3 mi NE 2.3 mph - N/A   Scattered Clouds
11:55 AM 69.8 °F 59.0 °F 68% 30.12 in 4.3 mi Calm Calm - N/A   Scattered Clouds
12:55 PM 69.8 °F 60.8 °F 73% 30.09 in 5.0 mi East 2.3 mph - N/A   Scattered Clouds
1:00 PM 70 °F 60 °F 62% 30.12 in 2 mi East 2.3 mph - -   Mist
1:55 PM 69.8 °F 64.4 °F 83% 30.09 in 5.0 mi ENE 6.9 mph - N/A   Scattered Clouds
2:55 PM 69.8 °F 62.6 °F 78% 30.09 in 5.0 mi East 9.2 mph - N/A   Scattered Clouds
3:55 PM 68.0 °F 64.4 °F 88% 30.12 in 5.0 mi ENE 8.1 mph - N/A   Scattered Clouds
4:00 PM 68 °F 64 °F 85% 30.12 in 3 mi ENE 8.1 mph - -   Mist
4:55 PM 66.2 °F 62.6 °F 88% 30.12 in 4.3 mi East 3.5 mph - N/A   Scattered Clouds
5:55 PM 64.4 °F 60.8 °F 88% 30.12 in 4.3 mi ENE 2.3 mph - N/A   Scattered Clouds
6:55 PM 62.6 °F 59.0 °F 88% 30.15 in 3.7 mi Calm Calm - N/A   Scattered Clouds
7:00 PM 63 °F 59 °F 83% 30.16 in 4 mi Calm Calm - -   Mist